Location: St Paul
(33.9360°N, 83.4200°W)
Time: 14:29:21
(UTC-04:00)

Cosmos 1242 Rocket - Pass Details

Date: 06 October 2017
Orbit: 453 x 492 km, 81.2° (Epoch: 18 October)

Event Time Altitude Azimuth Distance (km) Brightness Sun altitude
Rises 20:44:51 0° 203° (SSW) 2,468 6.4 -20.3°
Reaches altitude 10° 20:47:00 10° 212° (SSW) 1,604 5.5 -20.7°
Maximum altitude 20:50:17 38° 281° (W) 731 4.0 -21.4°
Drops below altitude 10° 20:53:39 10° 351° (N) 1,636 5.4 -22.1°
Sets 20:55:52 0° 360° (N) 2,525 6.3 -22.6°
